Find OneWeb SL0386

NORAD ID: 49312 Int'l Des: 2021-090 Owner: ONEWEBN Country: UK Constellation: oneweb operational
LEOCIRCULARPOLARONEWEB_TYPE

实时位置

正在加载3D地球...

关于 OneWeb SL0386

正在加载描述...

即将过境

Passes for default location (London). Set your location on the main map for personalized predictions.

高度历史

Loading altitude history...

两行轨道根数

1 49312U 21090AK 26106.94365944 -.00000024 00000-0 -91676-4 0 9991
2 49312 87.9146 286.6516 0001863 100.7380 259.3963 13.20773206221730
Epoch: Apr 16, 2026 • Age: 9 hours

当前状态

高度 1186.3 km
速度 7.26 km/s
星下点 37.62°N, 36.21°W
发射日期 Oct 14, 2021
运行时间 4.5 years
类型 internet

技术详情

分类 Payload
质量 148.00 kg
干质量 140.00 kg
总质量 148.00 kg
长度 1.30 m
直径 1.00 m
跨度 5.00 m
形状 Trapezoid+2 pan
制造商 ONEWUS
平台类型 ARROW
阶段状态 In Orbit
所有者/国家 ONEWEBN/UK

Most Searched